IGO960C VECC-VEKU

Flight info

Callsign IGO960C
Flight time 0h 49m
Altitude 31000
Route NOKAT2C NOKAT B593 AAT W55 KKU
Aircraft A21N/M-SDE3FGHIRWY/LB1

Departure

Time 2026-05-04 07:14
Airport Netaji Subhash Chandra Bose International Airport (VECC)

Arrival

Time 2026-05-04 08:03
Airport Silchar Airport (VEKU)
Time Latitude Longitude Altitude Speed Heading
2026-05-04 06:52 22.64510 88.44100 27 ft 0 kts 276°
2026-05-04 07:02 22.64509 88.44106 27 ft 2 kts 276°
2026-05-04 07:02 22.64507 88.44123 26 ft 2 kts 276°
2026-05-04 07:02 22.64506 88.44138 26 ft 2 kts 276°
2026-05-04 07:03 22.64503 88.44155 25 ft 2 kts 306°
2026-05-04 07:03 22.64491 88.44165 25 ft 2 kts 340°
2026-05-04 07:03 22.64481 88.44167 25 ft 0 kts
2026-05-04 07:03 22.64488 88.44167 25 ft 4 kts
2026-05-04 07:04 22.64532 88.44172 26 ft 5 kts
2026-05-04 07:04 22.64550 88.44174 26 ft 0 kts
2026-05-04 07:06 22.64578 88.44177 26 ft 4 kts
2026-05-04 07:06 22.64624 88.44182 26 ft 8 kts
2026-05-04 07:06 22.64696 88.44190 27 ft 12 kts
2026-05-04 07:07 22.64788 88.44201 28 ft 13 kts
2026-05-04 07:08 22.65370 88.44448 30 ft 17 kts
2026-05-04 07:09 22.65494 88.44463 30 ft 17 kts
2026-05-04 07:09 22.65618 88.44476 28 ft 17 kts
2026-05-04 07:09 22.65744 88.44492 26 ft 18 kts
2026-05-04 07:09 22.65868 88.44521 24 ft 18 kts 30°
2026-05-04 07:10 22.65975 88.44594 22 ft 17 kts 32°
2026-05-04 07:10 22.66089 88.44642 21 ft 17 kts
2026-05-04 07:12 22.66725 88.44924 27 ft 13 kts 10°
2026-05-04 07:12 22.66834 88.44937 27 ft 17 kts
2026-05-04 07:12 22.66965 88.44952 27 ft 19 kts
2026-05-04 07:12 22.67055 88.44981 26 ft 6 kts 352°
2026-05-04 07:13 22.67057 88.44970 26 ft 0 kts 197°
2026-05-04 07:13 22.66978 88.44955 27 ft 40 kts 185°
2026-05-04 07:13 22.66442 88.44892 25 ft 110 kts 186°
2026-05-04 07:14 22.61849 88.45025 1051 ft 194 kts 133°
2026-05-04 07:14 22.61383 88.46419 1280 ft 211 kts 89°
2026-05-04 07:15 22.61906 88.47958 1519 ft 228 kts 63°
2026-05-04 07:15 22.62653 88.49552 1760 ft 246 kts 67°
2026-05-04 07:15 22.63358 88.51323 2076 ft 261 kts 69°
2026-05-04 07:15 22.64047 88.53142 2585 ft 268 kts 69°
2026-05-04 07:16 22.64752 88.55037 3208 ft 271 kts 69°
2026-05-04 07:16 22.65447 88.56919 3829 ft 274 kts 69°
2026-05-04 07:16 22.66157 88.58844 4455 ft 277 kts 69°
2026-05-04 07:16 22.66865 88.60770 5083 ft 280 kts 69°
2026-05-04 07:17 22.67590 88.62741 5724 ft 284 kts 69°
2026-05-04 07:17 22.68319 88.64728 6367 ft 287 kts 69°
2026-05-04 07:17 22.69053 88.66731 7018 ft 289 kts 69°
2026-05-04 07:17 22.69802 88.68775 7654 ft 292 kts 69°
2026-05-04 07:18 22.70548 88.70814 8279 ft 295 kts 68°
2026-05-04 07:18 22.71306 88.72884 8897 ft 297 kts 68°
2026-05-04 07:18 22.72067 88.74966 9488 ft 300 kts 67°
2026-05-04 07:18 22.72835 88.77062 10059 ft 304 kts 67°
2026-05-04 07:19 22.73625 88.79217 10392 ft 316 kts 67°
2026-05-04 07:19 22.74455 88.81479 10670 ft 330 kts 67°
2026-05-04 07:19 22.75317 88.83835 10995 ft 342 kts 68°
2026-05-04 07:19 22.76197 88.86248 11477 ft 348 kts 67°
2026-05-04 07:20 22.77088 88.88694 12060 ft 350 kts 67°
2026-05-04 07:20 22.77975 88.91132 12627 ft 352 kts 67°
2026-05-04 07:20 22.78869 88.93601 13168 ft 355 kts 68°
2026-05-04 07:20 22.79676 88.96143 13677 ft 359 kts 71°
2026-05-04 07:22 22.85144 89.14812 16886 ft 384 kts 72°
2026-05-04 07:22 22.85949 89.17570 17307 ft 387 kts 72°
2026-05-04 07:23 22.86756 89.20340 17708 ft 391 kts 72°
2026-05-04 07:23 22.87580 89.23167 18121 ft 393 kts 72°
2026-05-04 07:23 22.88401 89.25989 18516 ft 396 kts 72°
2026-05-04 07:23 22.89226 89.28823 18891 ft 398 kts 72°
2026-05-04 07:24 22.90067 89.31713 19264 ft 401 kts 72°
2026-05-04 07:24 22.90909 89.34609 19642 ft 403 kts 72°
2026-05-04 07:24 22.91745 89.37485 20009 ft 405 kts 72°
2026-05-04 07:24 22.92598 89.40419 20348 ft 407 kts 72°
2026-05-04 07:25 22.93441 89.43322 20678 ft 410 kts 72°
2026-05-04 07:26 22.99517 89.64316 22821 ft 425 kts 71°
2026-05-04 07:27 23.00392 89.67348 23103 ft 427 kts 72°
2026-05-04 07:27 23.01289 89.70464 23375 ft 430 kts 72°
2026-05-04 07:27 23.02181 89.73560 23650 ft 432 kts 72°
2026-05-04 07:27 23.03081 89.76685 23927 ft 434 kts 72°
2026-05-04 07:28 23.03971 89.79778 24203 ft 436 kts 72°
2026-05-04 07:28 23.04882 89.82951 24471 ft 438 kts 72°
2026-05-04 07:28 23.05781 89.86085 24717 ft 440 kts 72°
2026-05-04 07:28 23.06691 89.89264 24959 ft 443 kts 72°
2026-05-04 07:29 23.07606 89.92459 25198 ft 445 kts 72°
2026-05-04 07:29 23.08526 89.95675 25462 ft 447 kts 72°
2026-05-04 07:29 23.09447 89.98899 25701 ft 449 kts 72°
2026-05-04 07:29 23.10362 90.02143 25912 ft 452 kts 73°
2026-05-04 07:30 23.11269 90.05383 26144 ft 454 kts 73°
2026-05-04 07:30 23.12194 90.08694 26380 ft 456 kts 73°
2026-05-04 07:30 23.13116 90.11998 26607 ft 458 kts 73°
2026-05-04 07:30 23.14039 90.15306 26838 ft 460 kts 73°
2026-05-04 07:31 23.14963 90.18623 27065 ft 462 kts 73°
2026-05-04 07:31 23.15895 90.21967 27290 ft 464 kts 73°
2026-05-04 07:33 23.22496 90.45716 28830 ft 477 kts 73°
2026-05-04 07:33 23.23483 90.49163 29119 ft 476 kts 73°
2026-05-04 07:33 23.24472 90.52590 29403 ft 476 kts 72°
2026-05-04 07:33 23.25457 90.56003 29658 ft 477 kts 72°
2026-05-04 07:34 23.26446 90.59444 29873 ft 479 kts 72°
2026-05-04 07:34 23.27427 90.62867 30096 ft 480 kts 72°
2026-05-04 07:34 23.28428 90.66361 30328 ft 481 kts 73°
2026-05-04 07:34 23.29427 90.69856 30558 ft 482 kts 73°
2026-05-04 07:35 23.30419 90.73334 30779 ft 483 kts 73°
2026-05-04 07:35 23.31406 90.76796 30817 ft 484 kts 73°
2026-05-04 07:35 23.33393 90.83778 30830 ft 484 kts 72°
2026-05-04 07:36 23.35374 90.90754 30832 ft 484 kts 73°
2026-05-04 07:38 23.43963 91.18353 30837 ft 482 kts 59°
2026-05-04 07:38 23.47765 91.24320 30838 ft 480 kts 47°
2026-05-04 07:39 23.52274 91.29689 30736 ft 481 kts 44°
2026-05-04 07:39 23.54558 91.32340 30486 ft 479 kts 44°
2026-05-04 07:39 23.56828 91.34987 30240 ft 476 kts 44°
2026-05-04 07:40 23.59076 91.37625 29991 ft 474 kts 45°
2026-05-04 07:40 23.61291 91.40234 29745 ft 473 kts 45°
2026-05-04 07:40 23.63529 91.42877 29496 ft 472 kts 45°
2026-05-04 07:40 23.65743 91.45498 29157 ft 472 kts 45°
2026-05-04 07:41 23.67963 91.48128 28670 ft 473 kts 45°
2026-05-04 07:41 23.70203 91.50782 28226 ft 467 kts 45°
2026-05-04 07:41 23.72380 91.53365 27807 ft 463 kts 45°
2026-05-04 07:41 23.74543 91.55934 27369 ft 459 kts 45°
2026-05-04 07:42 23.76703 91.58499 26920 ft 455 kts 45°
2026-05-04 07:42 23.78824 91.61018 26473 ft 451 kts 45°
2026-05-04 07:42 23.80928 91.63520 26018 ft 448 kts 45°
2026-05-04 07:42 23.83024 91.66012 25561 ft 445 kts 45°
2026-05-04 07:43 23.85114 91.68499 25101 ft 441 kts 45°
2026-05-04 07:43 23.87178 91.70957 24656 ft 437 kts 45°
2026-05-04 07:43 23.89217 91.73387 24213 ft 434 kts 46°
2026-05-04 07:43 23.91258 91.75822 23771 ft 430 kts 46°
2026-05-04 07:44 23.93255 91.78204 23332 ft 427 kts 46°
2026-05-04 07:44 23.95240 91.80575 22904 ft 423 kts 46°
2026-05-04 07:44 23.97229 91.82949 22475 ft 420 kts 46°
2026-05-04 07:44 23.99197 91.85300 22072 ft 416 kts 46°
2026-05-04 07:45 24.01118 91.87604 21664 ft 413 kts 46°
2026-05-04 07:45 24.03040 91.89930 21223 ft 410 kts 46°
2026-05-04 07:45 24.04954 91.92254 20773 ft 408 kts 46°
2026-05-04 07:45 24.06835 91.94538 20310 ft 406 kts 46°
2026-05-04 07:46 24.08714 91.96823 19863 ft 404 kts 46°
2026-05-04 07:46 24.10586 91.99100 19412 ft 402 kts 46°
2026-05-04 07:46 24.12457 92.01377 18972 ft 399 kts 46°
2026-05-04 07:46 24.14310 92.03632 18524 ft 397 kts 46°
2026-05-04 07:47 24.16143 92.05865 18099 ft 394 kts 46°
2026-05-04 07:47 24.17976 92.08096 17661 ft 392 kts 46°
2026-05-04 07:47 24.19790 92.10305 17205 ft 390 kts 46°
2026-05-04 07:49 24.32175 92.25428 14119 ft 373 kts 46°
2026-05-04 07:49 24.33910 92.27549 13686 ft 371 kts 46°
2026-05-04 07:49 24.35608 92.29627 13241 ft 369 kts 46°
2026-05-04 07:50 24.37314 92.31714 12804 ft 366 kts 46°
2026-05-04 07:50 24.39013 92.33794 12351 ft 364 kts 46°
2026-05-04 07:50 24.40695 92.35854 11920 ft 362 kts 46°
2026-05-04 07:50 24.42363 92.37898 11484 ft 359 kts 46°
2026-05-04 07:51 24.44026 92.39938 11050 ft 357 kts 46°
2026-05-04 07:51 24.45672 92.41956 10622 ft 355 kts 46°
2026-05-04 07:51 24.47304 92.43959 10301 ft 349 kts 46°
2026-05-04 07:51 24.48909 92.45931 10082 ft 339 kts 46°
2026-05-04 07:52 24.50450 92.47827 9987 ft 325 kts 46°
2026-05-04 07:52 24.51913 92.49628 9882 ft 313 kts 46°
2026-05-04 07:52 24.53357 92.51402 9483 ft 312 kts 46°
2026-05-04 07:52 24.54804 92.53178 9105 ft 311 kts 46°
2026-05-04 07:53 24.56250 92.54955 8725 ft 309 kts 46°
2026-05-04 07:54 24.65988 92.66952 6268 ft 292 kts 48°
2026-05-04 07:55 24.67335 92.68613 5919 ft 289 kts 48°
2026-05-04 07:55 24.68650 92.70237 5589 ft 286 kts 48°
2026-05-04 07:55 24.69980 92.71879 5254 ft 283 kts 48°
2026-05-04 07:55 24.71279 92.73483 4928 ft 279 kts 48°
2026-05-04 07:56 24.72557 92.75061 4707 ft 271 kts 48°
2026-05-04 07:56 24.73779 92.76572 4679 ft 256 kts 48°
2026-05-04 07:56 24.74937 92.78004 4646 ft 247 kts 47°
2026-05-04 07:56 24.76256 92.79184 4297 ft 246 kts 22°
2026-05-04 07:57 24.77945 92.79594 3903 ft 247 kts
2026-05-04 07:57 24.79620 92.79965 3577 ft 245 kts 23°
2026-05-04 07:57 24.81120 92.80791 3464 ft 232 kts 29°
2026-05-04 07:57 24.82317 92.81879 3347 ft 221 kts 58°
2026-05-04 07:58 24.82946 92.83347 3155 ft 206 kts 68°
2026-05-04 07:58 24.83495 92.84698 2857 ft 193 kts 64°
2026-05-04 07:59 24.83818 92.85366 2709 ft 187 kts 62°
2026-05-04 07:59 24.84465 92.86553 2447 ft 175 kts 58°
2026-05-04 07:59 24.85107 92.87633 2235 ft 160 kts 57°
2026-05-04 07:59 24.85477 92.88244 2112 ft 152 kts 57°
2026-05-04 08:02 24.88539 92.93317 1141 ft 146 kts 58°
2026-05-04 08:02 24.89099 92.94247 947 ft 145 kts 58°
2026-05-04 08:02 24.89656 92.95171 769 ft 145 kts 57°
2026-05-04 08:03 24.90223 92.96093 582 ft 145 kts 57°
2026-05-04 08:03 24.90784 92.97014 407 ft 143 kts 58°
2026-05-04 08:03 24.91298 92.97881 384 ft 116 kts 59°
2026-05-04 08:03 24.91506 92.98237 394 ft 4 kts 68°
2026-05-04 08:04 24.91495 92.98267 394 ft 5 kts 128°
2026-05-04 08:04 24.91459 92.98298 395 ft 8 kts 144°
2026-05-04 08:04 24.91407 92.98315 395 ft 7 kts 216°
2026-05-04 08:04 24.91415 92.98235 394 ft 32 kts 313°
2026-05-04 08:05 24.91479 92.98027 390 ft 12 kts 258°
2026-05-04 08:05 24.91477 92.98015 390 ft 0 kts 261°